Location: München
(48.1351°N, 11.5820°E)
Time: 04:42:38
(UTC+02:00)

ISS - Pass Details

Date: 19 May 2021
Orbit: 417 x 422 km, 51.6° (Epoch: 13 June)

Event Time Altitude Azimuth Distance (km) Brightness Sun altitude
Rises 22:04:55 0° 256° (WSW) 2,358 0.5 -10.3°
Reaches altitude 10° 22:07:01 10° 260° (W) 1,497 -0.5 -10.6°
Maximum altitude 22:10:22 65° 342° (NNW) 465 -3.3 -10.9°
Drops below altitude 10° 22:13:43 10° 66° (ENE) 1,504 -1.1 -11.3°
Sets 22:15:51 0° 70° (ENE) 2,371 -0.1 -11.6°
